Location: Newark
(23.1300°N, 73.6109°E)
Time: 23:03:07
(UTC+00:00)

NOAA 18 - Pass Details

Date: 25 June 2021
Orbit: 840 x 861 km, 99.0° (Epoch: 27 July)

Event Time Altitude Azimuth Distance (km) Brightness Sun altitude
Exits shadow 17:43:18 18° 287° (WNW) 2,005 7.5 -39.1°
Drops below altitude 10° 17:45:31 10° 309° (NW) 2,491 8.2 -39.3°
Sets 17:48:33 0° 326° (NW) 3,432 9.2 -39.6°
